Theta_e
341 341 341 341 340 340 339 339 340 340 341 342 343 344 344 344 343 342 342 341 341 340 339 337 336 336 334 332 332 333 332 329 327 327 327 328 329 329 329 330 330 329 327 326 326 326 326 327 327 326 326 326 325 324 323 323 323 323 322 323 322 322 323 323 324 325 326 328 330 332 334 336 337 338 339 339 340 341 341 342 342 342 342 342 343
338 337 337 338 337 337 337 338 339 340 341 342 343 344 344 344 344 343 342 341 341 341 340 339 340 340 340 339 339 339 336 333 330 328 326 325 326 326 327 327 327 326 326 326 327 328 328 327 327 326 325 325 324 323 323 323 323 323 324 324 325 325 326 327 329 331 334 336 338 339 340 341 341 341 341 341 341 341 341 342 342 343 343 343 344
335 336 336 336 335 336 336 338 339 341 342 343 343 344 344 344 344 344 342 342 341 341 341 341 341 341 341 341 342 342 340 338 335 332 330 327 326 326 326 326 327 328 328 329 328 328 327 326 325 325 325 324 324 324 325 326 327 328 329 330 331 331 332 333 335 337 338 340 341 341 342 341 341 341 341 340 340 341 343 343 344 345 345 346 346
332 334 334 334 334 335 336 338 341 342 343 343 344 344 344 345 345 344 343 342 341 341 341 341 342 341 341 342 342 342 343 342 340 337 334 333 332 331 331 331 330 329 328 328 327 326 325 325 324 324 324 325 326 329 330 332 333 334 335 336 336 337 337 338 339 339 340 341 341 341 341 341 341 340 340 341 343 345 346 347 348 348 348 349 349
331 331 332 333 334 335 337 340 342 343 344 344 345 344 344 345 344 343 342 342 342 341 341 341 341 341 341 342 342 343 343 343 343 340 337 336 336 337 336 334 330 327 326 325 324 324 324 323 324 325 327 330 333 335 336 337 339 340 340 340 340 340 340 340 341 340 340 340 340 340 340 340 340 340 341 344 346 347 348 348 348 348 348 348 349
334 333 333 333 333 335 338 341 343 344 344 344 344 345 345 344 343 342 342 342 342 342 342 342 341 340 341 342 343 344 344 344 343 343 339 337 339 341 339 335 330 327 325 324 323 323 323 324 327 330 333 336 337 338 339 342 343 344 344 344 344 344 343 342 342 341 340 340 340 340 339 340 340 342 345 347 347 346 346 346 346 346 346 345 347
336 336 336 335 335 335 337 341 342 343 344 342 342 344 344 344 343 342 341 342 342 342 342 342 342 341 342 343 344 344 344 344 343 343 339 338 342 343 341 339 335 330 327 325 325 324 325 329 333 336 337 338 338 340 343 345 345 346 346 346 346 346 345 343 341 340 339 339 339 340 340 342 343 346 347 347 345 343 342 342 341 341 340 340 343
339 339 339 338 337 336 337 339 340 341 342 341 341 343 345 344 343 342 342 342 343 344 343 342 343 343 344 344 345 344 344 343 343 342 339 339 342 341 341 341 339 335 331 329 327 327 329 333 336 337 338 339 341 343 345 346 346 346 345 345 344 345 345 344 342 340 339 340 340 342 343 345 346 347 345 341 339 336 334 334 333 332 332 332 333
341 340 340 340 339 338 337 338 340 340 341 341 342 344 345 344 343 342 342 342 344 345 344 344 345 345 345 345 345 343 343 342 343 341 339 339 339 339 341 342 340 339 337 334 330 329 332 335 336 337 339 341 343 344 344 345 344 342 340 339 340 343 344 344 343 342 342 343 343 344 344 345 346 344 339 335 333 331 328 327 326 325 325 324 323
343 342 342 341 340 339 338 338 340 341 342 343 343 344 344 344 343 343 343 344 345 346 345 346 346 346 346 345 343 341 341 341 341 341 338 338 338 340 343 342 342 341 339 336 332 331 333 334 336 337 340 342 342 343 344 344 341 339 338 336 337 343 345 344 344 343 343 343 343 343 344 344 343 338 333 331 330 329 326 324 323 322 322 321 322
344 344 344 343 341 340 338 338 340 342 343 343 343 344 344 344 344 343 344 345 346 346 346 346 345 345 345 343 340 339 339 340 341 340 337 337 339 341 342 342 341 340 338 336 333 332 332 334 336 338 340 340 340 342 342 342 339 338 337 334 335 341 343 342 342 342 342 342 342 343 343 342 339 334 332 332 331 329 327 325 323 323 322 322 322
344 345 345 344 343 341 339 338 339 340 342 343 343 344 345 345 345 344 345 346 346 346 345 345 344 343 342 340 339 338 339 340 340 339 337 337 339 340 340 340 339 338 337 336 334 334 334 336 337 338 339 339 339 340 339 338 336 335 334 333 333 335 338 338 339 339 340 340 340 340 340 338 336 334 333 333 332 331 329 327 326 324 324 323 323
344 345 345 345 343 342 340 339 339 339 340 343 343 343 344 345 345 345 345 346 346 346 345 344 344 342 341 341 340 340 340 341 341 340 339 339 339 340 339 337 336 335 336 337 337 337 337 338 338 338 339 339 340 339 337 336 335 333 332 332 333 334 335 335 336 336 336 335 335 335 335 335 334 334 333 333 333 332 331 329 328 327 325 324 324
344 344 344 344 343 342 342 341 340 340 340 341 343 343 343 344 345 345 346 346 346 346 345 344 345 343 342 343 342 342 341 340 340 341 340 341 341 340 338 336 334 336 339 341 340 339 339 341 342 343 342 342 341 340 337 335 334 332 330 331 333 334 333 332 331 331 330 330 330 331 331 332 332 332 332 332 333 333 332 332 331 329 327 325 325
343 343 344 343 342 342 343 342 341 341 341 342 342 343 344 344 345 346 346 347 347 346 344 344 346 344 344 345 344 344 344 340 339 340 340 340 341 340 339 335 334 338 341 342 341 341 343 344 346 346 346 345 343 341 338 335 335 331 328 329 330 330 329 328 327 327 327 328 328 329 329 329 330 330 331 331 332 333 333 333 333 331 329 327 327
343 343 343 343 342 342 342 342 342 342 342 342 342 343 345 345 346 346 347 349 349 347 344 345 345 345 346 346 345 345 347 343 340 339 339 340 339 339 338 334 334 339 341 341 341 342 343 345 346 347 347 347 345 343 339 336 335 332 328 327 327 327 327 327 327 327 327 327 328 328 327 328 328 328 328 329 331 332 332 333 333 333 332 330 329
343 343 343 343 342 342 342 342 343 343 343 343 343 344 345 345 346 347 346 348 349 347 346 345 345 346 346 346 347 347 347 345 343 340 339 340 339 338 337 333 334 339 341 341 341 341 342 343 344 345 346 347 347 345 340 335 334 333 329 327 328 327 328 329 330 329 329 330 330 329 329 329 330 330 328 328 330 331 332 332 333 334 334 333 330
344 344 343 343 343 343 342 342 343 343 343 344 344 344 346 346 346 347 347 347 347 347 347 345 345 346 345 344 345 345 345 344 344 343 340 339 340 339 337 335 336 338 339 340 340 340 341 341 343 344 345 346 347 345 340 334 333 333 331 329 329 330 331 334 336 336 335 335 335 334 334 335 336 335 333 331 331 331 332 332 333 334 335 334 333
344 344 344 343 343 343 343 343 343 343 343 344 344 345 346 346 347 348 348 347 347 347 346 345 345 346 346 344 343 343 343 343 343 343 343 341 340 340 339 339 339 338 338 338 339 339 340 341 342 344 345 346 347 345 339 334 333 334 333 332 332 334 336 338 340 341 341 340 338 338 338 339 339 339 338 336 334 333 334 333 333 334 335 335 335
344 345 345 343 343 343 342 342 343 343 344 344 344 345 346 346 348 348 348 347 347 347 346 345 346 346 346 345 343 343 343 343 343 343 343 343 342 341 341 340 340 339 339 339 338 339 340 341 343 343 345 346 347 345 339 334 334 335 336 334 334 337 339 340 342 343 344 343 341 341 341 341 341 340 340 341 340 338 338 335 334 337 338 338 338
345 345 345 344 343 342 341 340 341 343 344 344 343 344 344 345 347 348 348 347 347 347 346 344 345 347 346 345 344 344 343 343 343 342 342 343 344 343 342 340 341 340 339 340 339 339 340 342 343 344 345 346 347 346 342 338 336 337 338 337 335 337 338 339 341 342 343 344 343 342 342 342 343 342 341 343 344 343 341 337 335 338 340 341 341
344 345 345 344 344 342 340 339 340 342 344 343 343 343 344 345 346 348 348 346 346 346 346 345 345 346 346 345 345 344 344 343 343 343 341 341 342 344 343 342 342 340 339 340 340 340 340 341 342 342 343 345 346 346 345 343 340 338 339 340 338 338 338 338 338 338 340 342 343 342 343 343 344 344 341 342 345 346 345 342 338 339 341 343 344
344 344 344 344 344 342 339 338 339 342 343 343 343 343 343 345 346 347 347 346 346 346 346 346 345 346 346 346 345 344 344 344 344 342 341 341 341 344 345 343 343 342 339 340 341 341 341 340 340 340 340 343 345 346 345 346 345 342 341 342 342 341 340 339 338 337 338 340 342 342 342 343 345 345 343 340 343 346 348 347 344 344 344 346 346
345 345 344 344 344 343 341 339 339 341 342 342 342 342 343 344 345 346 346 346 346 346 346 346 346 346 347 346 346 346 345 344 345 344 342 342 340 343 345 342 344 344 341 340 341 341 341 339 338 338 339 341 343 344 344 344 345 345 343 344 344 343 342 340 339 339 339 339 341 342 343 343 344 346 346 342 341 343 347 349 348 347 347 348 348
345 345 345 344 344 343 342 340 340 340 341 341 342 343 343 344 344 345 346 346 347 347 346 346 346 346 347 347 347 349 347 345 345 345 344 344 342 344 345 342 345 346 342 341 341 342 342 340 339 339 339 340 340 342 342 343 343 344 345 346 345 345 343 340 339 339 341 339 339 341 343 345 345 347 348 347 343 341 344 348 349 348 348 349 350
344 345 345 345 344 343 342 341 341 340 341 341 342 343 343 343 343 344 346 347 348 347 346 345 346 345 346 346 348 350 349 346 346 347 347 348 347 346 344 343 346 346 344 342 342 344 344 342 341 341 340 340 339 339 341 342 343 343 345 346 346 346 344 342 338 338 339 338 337 339 342 344 347 348 349 349 346 342 341 345 348 348 348 349 351
344 345 345 345 345 344 343 342 341 341 341 341 342 343 343 343 344 344 346 347 347 347 345 343 343 344 344 344 345 348 348 346 346 347 347 348 348 348 346 345 347 348 346 344 344 345 343 342 342 342 341 342 340 340 340 341 342 343 344 346 346 346 345 343 338 336 336 335 335 337 340 343 346 348 349 350 349 344 341 343 347 348 347 349 352
343 344 345 344 345 344 343 342 342 342 341 342 342 343 343 344 345 345 346 347 347 346 343 341 341 341 342 342 342 346 346 346 346 346 347 347 347 347 347 346 347 348 348 346 346 346 344 343 344 343 342 343 342 341 342 342 343 344 345 345 346 346 345 343 338 335 334 334 334 335 338 342 345 348 348 349 350 346 342 344 347 347 346 348 351
344 344 344 344 344 345 344 344 344 343 343 343 343 344 344 345 346 347 348 348 347 345 343 341 340 340 340 340 341 342 343 344 345 346 346 346 346 347 347 347 346 347 349 349 347 347 346 346 346 345 343 343 345 345 345 346 346 346 347 347 347 346 343 340 337 335 334 334 334 335 338 341 344 346 347 348 349 346 342 343 347 347 345 347 350
345 345 344 344 344 344 345 345 345 345 346 346 345 345 345 346 347 348 348 348 347 346 345 343 342 341 340 340 340 340 340 343 345 346 346 346 346 346 346 346 346 346 347 348 348 347 345 345 347 347 343 343 345 347 347 347 347 346 346 345 344 342 340 338 337 336 335 335 335 336 338 340 343 346 347 347 348 346 341 340 345 346 343 344 349
346 345 345 344 343 344 344 345 346 346 347 347 347 346 346 346 347 347 347 348 348 348 347 345 344 343 343 342 341 340 340 341 343 345 345 344 344 345 345 346 346 346 345 346 348 347 343 343 345 345 344 343 343 344 345 344 344 344 343 343 343 341 340 339 338 337 336 336 337 339 340 341 343 346 347 348 348 345 341 339 342 343 339 341 346
347 346 346 345 344 343 343 343 344 345 346 347 347 347 346 346 346 346 346 346 346 347 346 346 345 345 345 344 343 343 342 342 342 343 344 343 343 344 345 346 346 346 345 345 347 345 341 342 343 344 345 344 343 343 344 344 344 344 344 344 343 342 342 340 339 338 336 338 341 342 342 342 344 347 347 349 348 342 338 337 337 338 337 338 344
347 347 346 346 345 344 344 344 344 344 344 346 347 347 346 345 345 345 344 344 344 345 344 344 344 344 345 345 345 344 344 343 343 344 345 346 346 346 346 347 346 345 345 345 347 345 341 340 341 342 343 343 343 344 344 345 345 344 342 342 341 340 340 339 338 337 337 339 340 340 340 339 342 345 347 349 346 337 334 333 330 332 334 337 341
345 345 345 345 345 345 345 345 346 345 344 345 348 348 346 345 344 344 343 343 344 343 342 343 343 343 344 344 345 345 344 344 343 344 346 347 348 349 349 348 347 345 344 344 345 345 343 341 340 341 340 340 341 342 342 343 342 340 339 338 338 337 337 337 337 337 337 338 337 336 335 334 337 341 344 346 342 333 332 331 328 328 331 335 339
343 343 344 344 343 344 344 345 346 346 345 346 347 347 347 346 344 343 343 342 342 342 342 342 342 342 343 343 343 343 344 344 343 343 343 344 345 346 347 347 347 346 345 344 345 344 344 342 340 341 341 340 340 340 340 340 340 339 338 338 337 336 335 336 335 335 335 335 334 334 333 332 333 336 338 339 336 333 334 334 330 327 328 331 336
340 341 342 342 342 342 342 344 345 345 346 346 346 346 346 345 344 343 342 341 341 341 340 340 341 342 342 342 342 342 343 343 343 343 343 342 342 342 342 342 342 342 342 344 345 345 345 343 341 341 341 340 340 341 341 340 340 339 339 338 338 337 337 337 336 336 334 333 332 331 331 330 331 332 333 334 333 333 335 335 333 330 328 328 332
337 338 338 339 341 341 342 343 344 344 345 346 346 345 345 344 343 341 340 340 340 339 338 338 337 338 339 339 340 341 341 341 340 341 341 341 341 341 341 339 338 338 339 340 343 345 345 344 342 340 341 341 341 341 341 341 340 339 339 338 338 337 337 336 337 337 335 334 332 331 330 329 329 329 330 331 331 332 332 332 333 332 329 329 330
337 337 336 335 336 337 339 341 342 343 344 345 345 345 344 343 342 341 340 339 339 338 336 335 335 335 335 336 337 337 338 337 337 337 337 337 338 338 337 336 335 335 336 338 341 343 343 344 343 342 342 342 341 340 340 340 339 339 338 337 336 335 335 334 334 334 333 333 332 331 331 330 329 329 329 329 329 329 330 330 331 331 331 330 331
336 337 336 334 333 333 335 338 340 341 342 344 345 345 344 344 344 343 342 341 339 338 336 335 335 335 334 334 335 334 334 335 335 335 334 334 334 333 333 333 333 333 334 337 341 343 344 344 344 345 344 343 342 340 339 338 338 338 337 336 335 333 333 333 332 331 330 330 331 331 331 330 330 330 329 328 328 329 329 329 329 330 331 331 330
334 334 334 334 333 332 332 334 337 340 341 342 344 345 345 346 345 345 344 344 343 341 340 340 339 339 338 336 336 335 334 334 334 334 334 333 332 330 330 330 331 332 333 336 339 342 344 344 345 344 342 341 339 338 337 336 335 334 333 333 334 334 335 335 333 332 332 332 332 332 332 331 331 332 331 329 329 330 329 328 328 328 329 330 330
333 333 333 333 333 333 332 332 333 337 339 339 340 343 345 346 346 346 346 345 344 344 343 343 343 342 342 341 340 339 339 338 338 338 338 339 338 336 334 333 333 332 331 332 334 336 338 338 338 336 334 333 331 330 330 330 330 331 331 333 336 338 340 340 336 334 335 336 335 334 334 334 334 334 332 331 331 331 330 328 326 327 328 329 330
334 334 333 334 334 334 333 333 332 333 334 335 337 340 343 345 346 347 347 346 345 345 344 344 344 344 343 343 343 343 343 343 343 343 343 343 343 342 341 341 340 338 335 333 332 331 332 332 331 331 330 330 329 330 330 331 332 333 336 339 341 342 344 344 340 335 334 337 340 338 335 335 336 334 332 332 333 334 332 330 328 327 328 328 328
340 337 335 335 337 336 335 334 332 332 332 333 334 336 339 342 345 347 347 346 346 345 344 344 344 344 344 344 344 344 344 344 344 345 344 344 344 344 345 344 344 344 343 340 338 335 335 334 334 335 336 336 336 337 337 337 338 339 341 343 344 345 346 347 346 342 338 340 344 343 339 337 337 336 334 333 334 334 333 332 331 330 329 329 329
348 346 343 340 340 340 340 338 337 337 336 334 332 333 337 341 344 346 346 346 346 345 344 344 343 343 343 344 344 344 344 344 344 345 345 345 345 345 345 345 345 346 346 346 345 344 343 343 343 342 342 342 343 343 343 342 342 343 344 345 345 345 346 347 349 348 346 345 346 346 344 341 340 339 337 335 335 335 333 332 332 332 331 331 330
351 351 350 347 346 346 347 346 345 344 342 338 335 334 336 340 344 345 345 346 346 345 345 344 344 344 344 343 343 344 343 343 343 344 344 344 345 345 345 346 346 346 346 347 347 347 347 347 347 346 346 346 346 346 345 345 345 345 345 345 345 345 346 347 349 349 348 347 348 348 347 345 343 343 341 338 338 338 335 333 333 332 332 332 332
351 351 351 351 351 351 352 351 350 349 346 343 339 337 337 340 342 344 345 345 346 345 345 345 345 345 344 344 343 342 342 342 342 342 343 343 344 345 345 345 346 346 346 347 347 347 348 348 348 347 347 347 347 347 347 346 346 346 346 346 346 346 347 348 349 349 348 348 348 349 348 347 346 347 345 343 343 342 339 335 333 333 333 334 334
351 351 351 352 352 353 353 352 351 351 349 346 344 341 340 341 342 343 345 345 345 346 345 345 345 345 345 345 345 344 344 343 343 343 343 343 343 344 344 345 346 346 346 346 346 347 347 347 347 348 348 347 347 348 347 347 347 347 347 347 347 347 348 348 349 348 348 348 350 350 350 349 349 349 348 347 347 346 342 338 335 334 334 335 336
351 351 351 351 351 351 352 352 351 350 349 349 347 346 345 344 344 344 345 345 346 346 346 346 346 345 345 345 346 346 345 345 345 344 344 343 343 343 343 343 344 344 345 345 345 345 346 347 348 349 349 349 349 348 348 349 349 348 347 348 348 348 349 349 349 350 350 351 353 353 353 351 350 350 349 348 349 348 344 341 338 335 334 334 335
348 349 350 350 351 351 351 351 351 350 350 350 349 349 348 348 347 346 346 346 345 345 346 347 347 347 347 347 346 346 346 345 345 345 344 344 344 344 344 344 344 344 344 344 344 345 347 348 349 349 350 350 350 349 349 350 351 349 348 348 349 349 350 351 351 352 353 354 353 354 355 353 351 353 352 350 350 349 347 343 339 338 337 335 335
345 346 347 348 349 350 350 351 350 350 350 350 349 349 349 349 348 348 348 348 347 347 347 348 348 348 349 349 349 348 348 347 346 346 346 345 345 345 345 346 346 345 345 346 346 347 348 348 348 349 350 350 350 350 350 351 351 350 349 349 350 351 351 353 353 354 354 353 351 352 354 354 354 355 355 354 354 353 352 349 344 340 339 337 335
340 340 342 344 347 349 349 350 350 350 350 350 350 351 351 350 349 349 349 350 350 350 351 351 351 351 351 351 351 351 350 350 350 349 349 348 348 347 347 348 348 348 348 348 349 349 349 349 349 350 350 350 351 351 351 351 352 351 351 352 353 353 353 354 355 355 355 354 352 351 352 353 354 355 355 355 355 354 354 354 351 347 345 341 337
Wind_Speed
11 11 11 11 12 13 14 14 14 14 13 13 13 13 14 14 14 14 14 13 13 13 13 14 14 15 16 16 16 15 14 14 12 11 9 8 8 7 7 8 8 8 8 8 9 10 10 10 10 9 9 9 9 10 10 11 11 12 13 13 12 12 11 11 11 11 11 11 11 11 11 11 11 11 11 11 11 10 10 9 9 8 8 8 7
11 12 12 12 13 14 14 14 13 12 12 12 12 12 12 12 13 13 13 13 13 13 13 14 15 16 16 16 15 14 14 13 13 12 11 9 8 8 8 8 8 8 9 9 9 10 10 10 9 9 9 9 10 11 12 12 13 13 14 14 13 13 12 12 12 11 11 11 11 10 10 10 10 10 11 11 11 11 11 10 10 9 9 9 8
12 13 13 13 13 13 13 12 11 11 11 11 11 11 11 11 11 12 12 13 13 14 14 14 14 14 15 14 14 13 13 13 12 13 13 12 11 10 10 10 9 9 9 9 9 9 9 9 9 9 9 10 11 12 13 14 14 14 14 14 13 13 12 12 11 11 10 10 10 10 10 11 11 11 12 12 12 12 12 12 11 11 11 11 11
13 13 13 13 12 12 11 11 11 11 10 10 9 9 10 10 10 11 13 13 13 13 13 12 12 12 12 12 12 12 12 12 12 12 12 12 12 11 11 10 10 10 9 9 9 9 9 9 9 9 10 11 12 13 14 14 14 14 14 13 13 12 12 11 10 10 10 10 10 10 11 11 12 12 13 13 13 13 12 12 12 12 12 12 12
13 13 12 12 11 10 9 9 10 10 9 8 7 8 9 10 10 11 12 12 12 12 11 11 10 10 11 11 11 11 10 10 11 11 11 11 11 11 11 10 10 10 10 9 9 9 9 9 9 10 11 12 13 14 14 14 14 13 13 12 12 11 11 10 10 10 10 10 11 11 12 12 12 12 13 13 13 13 12 12 13 13 12 12 12
12 11 11 10 9 8 8 8 9 9 8 7 6 7 8 9 10 10 10 10 10 10 9 9 8 8 8 9 9 9 9 9 9 10 10 10 10 11 11 11 11 10 10 10 10 10 10 10 10 11 12 13 13 13 13 13 13 12 12 12 11 11 11 10 10 10 11 11 12 12 12 12 12 12 12 13 13 13 13 13 13 13 13 12 12
10 10 9 9 8 8 8 8 8 7 5 4 4 6 7 8 8 9 9 9 9 8 8 8 8 7 6 7 8 8 8 8 8 8 9 9 10 10 11 11 10 10 10 10 10 10 10 10 11 12 12 12 12 12 12 12 12 12 12 12 12 12 12 11 11 11 12 12 12 12 12 12 12 12 13 13 13 13 13 12 12 13 13 12 11
9 8 8 8 8 8 8 8 7 5 4 3 4 5 6 6 7 8 8 7 7 7 7 7 7 6 5 5 5 6 6 6 7 7 8 8 8 8 9 9 9 10 10 11 10 10 9 10 10 11 11 11 11 11 11 11 12 12 13 13 13 13 13 13 12 12 12 12 11 11 11 12 12 13 14 14 14 14 12 11 11 11 11 10 10
8 7 7 7 7 8 8 7 6 5 4 4 4 5 6 6 6 7 7 7 7 7 7 7 6 5 5 4 4 4 5 5 6 6 6 7 6 7 8 8 9 10 10 10 10 9 9 9 9 9 10 9 9 10 11 12 12 13 14 14 13 13 13 13 12 12 12 12 12 12 13 13 14 15 16 16 16 16 15 14 13 13 11 11 11
8 8 7 7 7 7 7 7 6 6 5 5 5 5 5 6 5 6 6 6 6 7 7 6 6 5 5 4 3 4 4 4 5 5 5 5 5 6 7 8 9 9 9 10 10 9 8 8 8 8 9 9 9 10 11 13 13 14 15 15 14 12 12 13 13 13 13 13 14 14 15 15 16 17 17 18 18 17 17 17 16 15 15 15 15
8 8 7 7 7 7 7 7 7 6 5 5 5 5 5 5 5 5 5 6 6 7 7 7 7 6 5 5 5 5 4 4 4 4 4 5 6 7 7 7 8 8 9 9 9 9 8 7 7 8 8 9 10 11 12 14 15 15 16 16 14 13 13 14 14 14 15 15 15 16 16 16 17 18 18 18 19 19 19 19 18 18 18 18 18
9 7 7 7 7 7 7 7 7 6 6 5 5 4 4 4 4 4 4 5 6 6 6 7 7 7 7 8 7 6 5 5 5 4 4 4 5 6 7 7 7 8 8 9 9 9 8 7 8 8 8 10 11 12 13 14 16 17 17 16 16 15 15 15 15 16 16 16 16 17 17 18 18 19 19 19 19 19 19 19 19 19 20 20 20
8 7 6 6 7 7 7 7 6 6 5 5 5 4 4 3 4 4 4 4 5 6 6 7 8 8 9 9 9 8 7 6 6 6 5 4 5 6 6 7 7 8 8 9 9 9 9 9 9 9 9 10 11 12 14 15 17 18 18 18 17 17 16 16 16 17 17 17 17 18 18 18 18 19 19 19 19 19 19 19 19 20 20 20 20
7 7 6 6 7 7 7 7 7 6 6 6 5 4 3 3 3 4 4 3 4 6 7 8 9 9 10 9 8 8 8 7 7 7 6 5 5 6 6 7 7 8 9 10 11 11 11 10 10 10 11 12 12 13 14 16 17 18 18 19 18 18 18 17 17 17 17 18 18 18 18 18 18 18 19 19 19 19 19 19 19 20 20 20 21
7 7 7 7 7 7 7 7 7 7 6 6 5 4 3 3 3 4 4 4 4 5 7 8 8 8 9 9 8 8 8 8 9 7 7 6 5 5 6 7 8 9 10 11 12 12 12 11 10 11 12 13 14 14 14 15 17 18 18 19 19 18 18 17 17 17 18 18 18 19 18 18 18 19 19 19 19 19 19 19 19 20 20 20 21
9 8 7 7 7 7 7 8 8 7 6 5 5 4 4 3 3 3 4 4 4 5 6 8 9 9 9 9 10 10 8 8 10 9 9 7 6 5 5 7 8 9 9 9 10 10 10 10 10 10 11 12 13 14 14 14 16 17 17 17 18 18 18 17 17 17 17 18 18 18 18 18 19 19 19 20 20 20 20 20 20 20 20 21 22
10 9 9 8 8 8 8 8 8 8 7 6 5 5 4 4 3 3 4 4 4 4 5 6 7 9 10 9 8 8 8 8 9 10 10 9 7 6 5 7 8 7 7 7 7 8 8 8 8 9 10 11 12 13 13 13 14 16 15 15 16 17 17 17 17 17 17 17 18 18 18 19 19 19 20 20 20 20 20 20 20 21 21 21 22
9 9 8 8 8 8 8 8 8 8 7 6 6 6 6 4 4 3 3 3 3 4 4 4 5 7 9 9 8 7 9 10 9 8 9 10 9 8 6 6 6 5 5 5 5 5 6 7 7 8 9 11 12 13 12 12 13 14 14 13 14 14 15 16 17 17 17 17 17 18 18 19 19 20 21 21 21 20 20 20 21 21 21 22 23
9 8 8 8 8 8 8 8 8 8 7 7 6 6 6 5 4 3 3 3 2 3 3 3 4 5 7 9 9 8 9 11 11 9 8 9 9 8 6 5 5 5 5 4 3 3 5 6 6 8 9 11 11 12 11 11 12 14 14 13 12 13 14 14 15 16 17 18 18 18 18 19 19 20 21 21 21 20 20 20 20 21 22 24 24
9 9 8 8 8 8 9 9 9 8 8 7 7 7 6 5 4 3 3 2 2 1 1 1 2 4 6 7 7 7 7 9 9 9 8 8 8 8 7 4 4 4 3 3 3 3 4 4 5 7 8 10 11 12 11 11 11 12 13 13 13 13 13 14 15 15 17 17 18 18 19 19 19 20 20 20 20 20 21 20 20 21 23 25 26
9 9 9 8 8 9 9 10 10 9 8 7 7 7 6 5 5 4 3 2 1 0 0 1 1 2 4 5 5 5 6 7 7 8 7 7 7 8 7 5 4 4 3 3 3 3 4 4 5 6 7 9 11 12 12 12 11 11 12 13 13 14 14 14 15 15 16 17 18 18 19 19 19 19 20 20 20 20 20 20 19 20 23 25 26
8 8 9 9 9 9 10 10 10 9 9 8 7 7 6 6 5 5 4 3 2 1 1 2 1 1 2 3 4 4 5 5 6 6 6 6 6 7 7 6 5 4 3 4 3 3 4 4 4 5 7 8 10 11 12 13 12 11 12 14 14 15 16 16 16 16 16 17 17 18 18 18 18 18 19 20 19 19 20 20 19 20 22 24 25
7 7 8 8 8 9 10 10 10 9 9 8 8 7 6 6 5 5 5 4 4 3 3 3 3 2 2 2 3 4 4 4 4 4 4 4 4 5 6 6 6 5 4 4 4 4 4 4 4 5 6 7 9 10 11 12 13 11 11 14 16 17 17 17 17 17 17 17 17 18 18 18 18 17 18 19 19 18 18 19 19 20 21 23 24
8 7 7 7 8 8 9 10 9 9 9 9 9 8 7 6 5 5 6 5 5 4 5 5 5 4 4 4 4 3 3 3 3 3 3 2 3 4 4 5 5 6 5 4 5 6 6 6 5 6 6 7 8 9 10 11 12 11 11 14 16 18 19 19 18 17 17 17 18 18 18 18 17 17 17 18 18 18 18 18 18 19 21 22 23
7 7 6 7 7 7 8 9 9 9 9 9 9 8 7 6 6 6 5 6 6 6 6 7 7 6 6 6 5 4 4 3 2 2 2 2 2 3 3 4 4 5 6 5 5 6 7 7 7 7 7 8 8 9 10 10 11 11 12 13 15 17 19 20 19 18 17 18 18 18 18 17 16 16 16 16 17 18 18 17 18 19 20 22 22
6 6 6 6 6 7 7 8 8 8 8 9 9 8 7 7 6 6 5 6 7 7 7 7 8 8 8 8 7 6 6 5 3 2 2 3 3 3 3 4 3 4 5 5 5 6 7 7 8 8 8 9 10 10 10 10 11 12 12 13 14 16 18 20 20 19 18 18 18 18 17 17 16 15 16 15 16 18 18 18 17 18 19 21 21
5 6 6 6 6 7 7 7 7 8 8 8 8 8 7 7 6 6 6 7 7 7 7 8 9 9 10 10 9 8 8 7 5 4 3 3 3 4 5 5 5 5 6 6 6 7 8 10 10 10 9 9 10 10 11 11 11 12 13 13 14 16 18 20 20 20 18 17 18 18 17 16 15 15 15 15 15 16 18 18 18 17 18 19 20
6 6 6 6 6 7 7 7 8 7 7 7 8 8 7 7 6 6 6 7 7 7 8 8 8 9 10 10 10 9 9 9 8 7 6 6 6 6 7 8 8 8 8 8 8 8 10 10 10 11 11 10 10 10 11 11 12 13 14 14 16 17 19 20 21 20 19 17 18 18 17 16 15 15 15 15 15 16 17 19 18 17 17 18 19
6 6 6 6 6 7 7 7 8 7 7 7 7 7 7 7 6 6 6 7 7 8 8 8 9 9 9 9 9 10 10 10 9 10 9 9 9 9 9 10 10 10 9 10 10 10 10 10 10 11 12 11 11 11 11 12 12 13 14 16 17 19 20 21 21 20 19 18 18 18 17 16 16 15 15 14 15 15 17 18 19 18 17 17 18
7 7 7 7 7 7 7 7 7 7 7 7 7 7 7 7 7 6 6 7 7 7 8 8 9 9 9 9 10 10 10 10 10 11 11 11 11 12 12 12 12 12 11 11 13 12 11 11 10 11 13 12 12 12 12 13 14 14 15 17 18 20 21 21 20 20 19 17 17 17 17 17 17 16 15 15 15 16 17 18 19 19 17 16 16
7 8 8 7 7 7 7 7 7 7 6 6 6 6 7 7 7 6 7 7 7 7 8 9 9 9 9 9 10 9 10 10 11 12 13 13 13 13 13 13 13 13 13 13 13 14 14 13 11 11 12 12 12 13 13 14 15 16 16 17 18 19 20 20 19 19 18 17 17 17 18 18 17 17 16 16 16 17 18 18 19 19 17 16 16
7 7 7 7 7 7 7 7 7 7 7 7 6 6 7 7 6 6 7 7 7 8 8 9 9 9 9 9 9 9 9 10 11 12 13 13 14 13 13 13 13 13 14 14 15 16 15 13 12 11 11 12 12 12 12 13 14 15 15 16 17 18 18 19 19 18 17 16 16 17 18 18 18 17 17 17 17 18 18 18 19 18 17 15 15
8 7 7 7 7 7 8 8 8 9 9 8 7 7 7 7 7 7 7 7 7 7 8 8 8 8 9 9 9 9 9 10 10 11 11 12 12 13 12 13 13 13 14 14 16 17 16 13 12 12 12 13 12 11 11 12 13 14 15 15 16 16 16 17 17 17 16 16 16 18 19 19 19 18 17 17 18 18 18 18 18 18 16 15 15
9 9 8 7 8 8 9 9 9 9 9 9 8 8 8 8 8 7 7 7 7 7 7 7 7 8 9 9 9 9 9 10 10 10 11 11 11 11 11 12 12 12 13 14 15 17 18 16 15 14 14 14 13 12 12 13 14 14 14 14 14 14 14 15 16 16 16 16 17 18 19 19 18 17 17 18 18 17 17 17 17 17 16 15 15
10 10 9 9 9 9 9 10 10 10 10 10 9 9 9 8 8 8 8 8 8 8 8 8 7 8 9 9 8 8 9 10 10 10 11 11 11 11 11 12 12 12 12 13 14 16 18 18 17 17 17 15 13 12 12 13 13 13 13 13 12 12 12 13 14 14 15 16 17 19 19 19 18 18 17 17 17 16 16 17 17 17 16 16 16
11 10 10 10 10 10 10 10 10 10 10 10 10 10 9 9 9 9 9 9 9 9 9 9 9 9 10 10 9 9 10 10 10 11 11 12 12 12 13 12 12 13 13 13 13 14 17 19 18 17 16 14 13 12 12 13 13 12 12 12 12 12 11 12 13 14 14 15 17 18 19 19 19 19 18 18 17 16 17 17 17 17 17 17 16
12 11 11 11 10 11 11 10 10 10 10 10 10 10 10 10 10 9 9 9 9 9 10 10 10 11 11 11 10 10 11 11 11 11 12 12 13 13 13 13 13 13 13 13 14 14 16 18 18 15 13 13 13 13 13 14 15 15 14 14 14 14 13 13 14 15 16 17 18 19 19 19 19 19 19 19 19 19 19 17 16 16 16 17 17
14 13 13 12 12 12 12 12 12 11 10 10 10 9 9 10 10 10 10 10 10 10 10 11 11 11 12 12 12 12 12 13 13 13 13 13 14 14 14 14 13 12 13 13 13 14 15 16 16 15 14 14 15 15 15 15 17 17 17 17 16 16 16 16 17 17 19 20 20 21 21 21 20 20 20 21 21 21 21 19 17 15 15 16 16
17 16 15 15 15 14 14 13 13 12 11 11 10 9 9 9 9 9 9 9 10 10 10 10 10 10 11 12 12 12 13 13 13 13 13 13 13 14 14 14 13 13 13 13 13 13 14 15 16 16 17 17 17 17 17 17 17 18 19 20 19 18 19 20 20 20 20 21 22 23 23 23 22 21 21 22 22 22 22 20 17 15 14 15 15
19 18 18 17 17 16 16 16 15 14 13 12 11 10 10 9 9 9 9 9 9 9 8 8 8 9 10 11 11 12 12 12 12 12 12 13 13 14 14 14 14 14 14 14 14 15 16 17 18 18 19 20 20 19 19 19 19 19 20 21 22 21 21 22 22 21 22 22 23 23 24 24 24 23 23 22 22 21 22 21 18 16 15 15 15
21 20 19 19 18 18 18 17 17 16 15 14 13 12 11 11 10 10 10 10 10 10 9 9 9 8 9 9 10 11 11 11 11 11 11 12 13 14 14 14 14 15 15 15 16 16 17 19 20 20 21 22 21 20 20 19 19 19 20 21 22 22 23 24 23 22 23 23 24 24 25 25 25 25 25 23 22 21 20 20 19 18 18 17 16
21 21 20 20 20 20 19 19 19 19 18 17 16 14 13 12 12 12 12 12 12 12 11 11 10 10 10 10 11 11 10 10 11 11 11 12 12 13 14 14 14 15 16 16 17 17 18 19 20 20 21 22 20 19 20 20 18 18 19 20 21 22 24 26 26 25 24 24 26 28 27 27 27 28 26 25 23 21 19 18 17 18 19 19 18
21 21 21 21 20 20 20 20 20 19 19 19 18 17 16 15 14 14 14 14 14 14 14 14 13 12 12 13 13 13 13 12 12 13 13 13 13 13 13 13 14 14 15 16 17 17 18 19 19 19 20 21 19 18 19 19 18 19 19 20 22 23 24 26 28 28 27 26 28 31 31 30 30 29 28 26 23 21 19 17 16 17 19 20 20
20 21 22 22 21 20 20 20 20 20 20 20 20 19 18 18 17 16 15 15 15 16 16 16 15 15 15 15 16 16 16 15 15 15 15 14 14 14 15 14 14 14 15 15 16 17 17 18 19 19 20 20 20 18 18 18 19 20 21 22 23 24 26 27 28 29 29 29 30 33 34 33 32 31 30 27 25 23 21 18 17 17 18 19 20
22 22 23 22 21 20 19 20 20 20 21 21 20 20 19 19 18 17 16 16 16 16 17 17 17 17 17 17 17 18 17 17 17 17 17 17 17 17 17 17 16 16 15 16 16 17 17 18 20 21 20 21 21 21 19 19 21 22 23 24 25 26 27 28 29 31 31 30 31 33 35 34 33 33 33 30 29 26 24 21 19 18 18 18 19
23 24 24 23 22 20 20 21 20 21 21 21 20 20 20 19 19 18 17 17 17 17 17 18 19 19 19 19 19 19 18 18 18 18 19 19 19 19 20 20 19 19 18 18 18 18 19 20 22 23 23 22 24 24 23 23 24 25 25 26 26 28 29 30 31 32 32 31 30 31 34 34 33 34 35 33 31 29 26 23 21 18 18 18 19
21 22 22 22 22 22 22 22 21 22 23 22 21 21 21 20 19 19 19 19 19 19 19 19 20 20 21 21 22 21 21 20 20 20 20 21 22 22 22 22 22 22 21 21 20 20 21 23 24 26 26 26 27 28 27 26 27 27 27 27 28 30 32 32 33 34 34 33 30 29 32 33 32 33 35 33 31 30 27 25 22 19 19 19 19
13 13 14 16 18 21 22 22 23 25 25 24 23 23 22 22 21 21 21 21 21 21 21 21 21 21 22 22 23 23 23 22 22 22 22 22 23 24 25 25 25 25 25 24 24 24 25 25 27 28 29 29 29 30 30 30 29 28 27 28 29 30 31 32 33 34 33 31 28 26 28 31 31 32 33 32 31 31 29 26 23 21 20 20 19
6 6 7 10 14 16 17 18 21 23 24 24 24 24 23 23 22 22 22 23 23 24 23 23 23 23 23 23 23 24 24 24 24 24 24 24 24 25 26 26 27 28 28 28 28 28 28 29 30 30 30 30 29 28 29 29 29 28 28 29 30 28 28 30 31 31 30 29 28 25 25 28 29 27 29 30 29 30 29 25 22 20 20 20 19
4 3 2 5 8 11 13 16 18 19 20 21 21 21 20 20 20 20 20 20 22 23 24 24 25 25 26 26 25 26 26 27 27 27 27 27 27 27 27 27 28 29 29 30 31 31 31 31 31 31 30 29 28 27 27 27 26 26 27 29 29 26 27 29 30 30 29 29 30 28 25 26 26 23 24 25 24 23 22 19 19 22 20 18 19
1 1 2 4 7 9 11 12 12 13 14 15 15 15 16 17 17 17 17 17 19 21 22 23 23 25 26 26 27 27 27 27 28 28 28 28 28 28 28 28 29 30 30 31 32 32 32 32 31 29 28 27 26 26 26 25 24 24 25 26 25 25 27 29 28 28 29 28 29 30 29 26 24 22 22 22 22 23 21 17 20 25 24 21 20
Wind_Direction
111 110 112 116 116 118 119 120 120 116 113 112 110 104 97 90 86 85 85 86 85 84 83 82 81 81 80 78 75 72 71 69 68 67 68 69 68 66 64 61 59 58 57 56 53 54 53 53 51 49 48 47 49 52 53 51 48 46 45 43 39 38 35 33 33 31 29 28 26 26 24 22 20 17 13 9 5 1 359 358 356 354 348 339 335
111 110 112 116 118 119 120 120 119 116 114 111 107 102 96 89 84 84 83 84 86 86 86 85 82 80 79 76 73 71 69 69 67 66 66 67 66 64 62 60 59 58 59 60 59 59 58 57 55 53 53 53 54 55 55 53 50 48 46 43 40 38 36 35 34 32 30 27 25 22 18 15 11 7 3 358 353 348 346 343 339 333 325 319 318
113 114 116 119 121 123 122 120 118 115 111 107 104 100 95 89 84 82 83 88 90 89 89 86 82 79 77 75 72 70 69 68 68 66 66 66 67 67 66 64 62 60 60 61 63 65 65 64 62 61 60 60 59 58 56 54 51 49 46 43 40 39 36 33 30 27 23 20 17 12 6 2 358 355 352 349 345 342 339 334 330 325 319 318 317
117 119 121 123 124 125 124 122 118 115 110 105 102 100 97 91 87 86 88 93 95 92 89 84 80 79 78 75 73 71 69 68 68 68 68 67 68 68 67 65 62 60 59 59 63 68 70 71 70 69 67 66 64 62 59 55 51 48 44 41 37 35 31 27 22 17 12 7 3 358 354 352 350 349 347 346 345 342 339 335 333 332 329 325 321
124 126 129 129 128 127 126 126 125 121 112 104 101 101 100 95 92 91 94 97 96 92 87 82 79 80 79 76 74 72 69 69 68 69 70 70 70 71 70 67 65 62 60 62 66 71 75 76 76 75 74 71 67 63 58 53 48 43 38 34 29 24 18 12 6 1 357 352 349 346 346 347 347 347 347 348 348 345 342 341 339 335 332 327 322
130 133 137 139 140 137 134 135 136 132 118 104 100 105 106 100 95 97 101 101 97 91 85 79 78 82 82 79 77 72 71 72 72 74 74 78 80 79 76 72 71 69 68 69 72 76 79 81 81 78 75 70 64 58 53 47 42 37 31 25 19 12 5 359 353 348 345 342 342 343 344 347 348 350 351 353 351 348 345 341 336 329 327 328 326
131 135 139 144 145 145 144 143 143 141 131 112 107 117 116 106 103 107 108 103 95 86 82 79 76 78 79 81 78 75 76 76 78 81 85 93 94 88 81 77 77 76 77 77 77 79 81 81 81 77 71 64 57 52 46 41 36 29 22 15 9 3 358 353 349 346 345 347 348 349 352 354 355 355 355 356 354 350 345 338 334 331 332 332 329
134 138 143 146 144 143 145 144 142 141 140 131 124 128 126 118 115 116 111 101 86 74 76 76 69 70 73 76 78 78 80 81 84 88 99 107 103 94 88 85 85 85 84 83 82 82 80 80 78 73 66 59 52 47 41 36 29 21 13 7 2 358 355 354 353 355 357 359 1 1 2 2 1 359 359 1 0 359 357 353 354 353 350 346 343
136 142 146 147 142 140 141 138 136 138 137 134 131 130 129 122 119 119 109 95 79 65 66 63 53 54 58 61 74 85 87 91 96 100 112 116 107 100 97 98 95 91 89 87 87 86 82 79 74 69 62 54 50 46 41 34 27 20 14 8 4 2 3 4 6 8 10 11 11 9 7 6 5 3 4 7 7 9 12 15 17 17 14 10 8
141 144 142 137 134 134 136 134 132 131 130 131 132 130 126 120 118 118 105 87 75 66 63 54 38 29 29 41 68 90 97 103 106 113 124 121 112 111 109 107 102 96 93 91 90 87 82 76 68 62 56 52 51 48 43 35 29 24 21 17 14 16 17 18 18 18 16 15 13 11 9 8 8 8 9 11 12 14 17 20 21 21 20 19 17
148 145 135 126 126 128 132 133 130 129 132 133 135 135 128 121 115 113 103 86 75 69 61 45 34 28 32 54 77 92 97 99 98 107 123 122 118 117 115 112 105 100 97 93 91 85 79 71 62 59 55 54 52 47 41 34 30 27 25 23 23 25 25 23 22 19 17 15 14 12 11 10 10 10 10 10 12 14 16 18 18 17 17 16 14
152 143 133 129 129 132 134 134 134 137 141 141 148 150 139 127 113 107 102 84 73 68 55 44 42 43 53 66 79 90 90 84 81 85 99 109 117 120 118 114 107 102 99 95 91 84 78 70 64 64 62 57 52 46 39 34 33 31 29 30 30 31 29 27 25 23 21 19 17 14 12 11 10 9 8 7 10 12 14 14 13 13 12 12 11
155 145 136 135 135 138 137 137 142 149 150 151 159 160 148 131 109 100 100 82 67 56 48 54 56 55 62 68 75 80 77 76 77 76 75 82 102 116 119 112 106 104 100 96 93 88 81 74 70 68 64 57 50 46 41 37 35 34 34 34 35 36 34 32 31 29 26 22 19 16 14 12 9 7 5 5 7 10 11 10 9 9 9 8 9
161 156 145 140 141 141 140 144 151 154 154 157 160 160 154 133 107 97 100 82 63 50 50 59 52 51 64 69 73 74 66 71 75 73 73 77 90 107 113 110 110 109 104 100 96 91 84 77 72 67 61 54 48 44 40 37 36 35 35 36 38 39 37 35 35 32 28 24 20 17 15 11 9 6 5 5 7 8 9 9 7 6 7 6 7
164 163 153 151 150 146 149 153 154 156 158 161 164 163 157 140 114 99 92 68 53 53 60 61 46 47 61 61 65 64 59 68 71 70 78 81 85 97 108 115 120 117 109 105 99 93 86 78 71 63 56 49 44 40 38 36 35 35 35 35 37 39 37 35 34 32 29 25 20 17 14 11 9 7 6 6 7 9 9 8 7 6 6 5 5
166 167 164 163 158 154 160 160 158 162 164 165 167 163 157 148 125 100 85 61 50 61 66 61 50 49 54 51 54 52 41 51 62 67 76 80 82 93 115 128 131 125 114 108 102 95 86 76 66 57 50 44 39 36 34 34 33 33 34 34 35 37 36 34 32 30 28 25 21 17 14 11 10 8 8 8 8 10 11 9 8 7 6 5 6
168 170 170 167 160 160 167 167 167 168 166 167 168 161 158 154 131 99 84 73 67 73 68 58 52 49 49 47 47 42 29 38 58 66 67 72 76 84 115 135 133 123 113 110 104 96 84 71 58 49 43 38 35 32 31 32 30 29 31 33 33 33 33 33 30 28 26 25 22 19 17 14 12 11 10 10 10 11 12 11 9 8 7 6 8
171 172 172 167 162 164 169 172 173 170 168 168 167 163 162 157 137 107 93 93 86 77 67 57 52 47 45 45 43 41 36 39 50 57 60 66 68 73 98 121 121 111 105 108 101 88 79 66 52 42 36 33 30 27 28 29 27 25 26 29 32 30 28 29 28 25 23 22 20 18 17 15 13 12 11 12 13 14 13 12 10 10 9 8 10
175 177 176 171 169 170 172 174 172 170 171 171 167 165 166 162 147 128 116 116 98 75 71 61 51 40 36 38 39 41 40 38 41 44 50 56 57 64 80 97 105 103 99 98 83 68 71 65 50 40 34 30 26 23 27 30 27 24 22 24 28 29 25 24 24 21 19 17 15 15 14 12 11 10 10 11 13 14 13 12 12 14 12 11 12
179 181 180 178 178 176 173 173 174 173 175 174 170 172 173 169 162 156 148 145 121 74 78 82 52 36 26 29 35 36 34 34 35 37 39 41 43 53 63 71 77 78 78 79 68 56 63 60 47 38 33 30 24 21 25 28 29 28 25 22 23 24 22 18 17 15 14 12 10 10 10 10 9 8 9 9 11 13 13 12 13 16 16 14 14
182 184 183 181 181 179 174 175 178 179 180 178 178 183 182 180 184 185 182 181 176 158 198 173 84 32 18 23 30 29 25 25 26 30 35 36 32 35 45 59 58 47 38 34 34 40 48 51 44 34 27 25 22 20 22 23 27 31 29 24 22 20 16 13 11 10 10 8 6 6 6 7 8 8 8 9 10 12 13 13 12 14 13 13 14
183 187 186 184 183 181 177 179 183 184 184 183 185 189 188 189 198 203 205 213 211 223 242 219 207 309 350 13 18 17 18 21 23 26 30 35 29 21 24 33 36 31 27 22 15 20 27 30 33 24 14 15 14 14 16 17 19 22 24 23 20 16 12 9 8 7 7 5 3 2 2 4 5 7 8 9 9 10 12 13 12 10 8 8 10
185 188 189 188 187 184 182 185 188 189 190 189 189 189 190 194 204 211 216 225 227 234 247 240 236 257 290 327 353 1 4 12 18 20 26 33 29 19 14 13 14 10 7 9 8 9 9 3 2 360 358 2 1 0 4 9 10 9 12 15 14 12 8 5 4 3 2 2 360 358 359 360 0 3 5 7 7 6 8 11 12 10 8 7 7
185 187 189 191 192 191 190 191 192 194 196 195 193 193 195 201 210 218 224 233 243 248 249 247 245 254 275 295 317 333 336 348 5 15 27 27 19 18 8 3 8 2 351 349 355 358 358 357 354 349 348 347 345 345 348 355 358 357 358 3 4 3 1 360 358 357 355 356 356 353 353 355 355 356 359 3 4 2 2 6 9 10 8 7 6
188 186 188 191 193 195 196 196 196 197 197 196 196 199 202 210 219 226 232 242 256 266 260 252 248 251 266 281 297 307 299 301 325 351 11 6 1 9 352 350 1 352 340 339 347 352 349 348 347 342 339 333 328 329 332 336 340 342 343 347 351 352 352 352 351 350 350 351 352 349 347 349 350 351 352 355 360 360 358 359 4 7 6 6 6
193 188 189 191 192 192 193 197 200 200 197 196 200 204 209 216 224 229 238 249 261 274 274 263 254 254 260 269 280 290 285 277 282 304 337 348 349 353 337 334 336 329 329 327 331 341 338 334 332 329 327 323 318 317 317 320 323 326 329 332 338 341 343 343 342 342 344 346 346 344 341 341 344 345 345 348 353 357 356 355 358 2 3 4 4
196 193 192 193 191 190 189 193 200 202 202 203 207 210 214 220 228 234 243 256 268 277 277 272 264 260 261 265 268 277 278 271 266 277 290 301 316 324 324 327 325 321 322 320 323 326 322 322 322 319 318 315 311 308 307 309 312 316 321 324 327 331 333 334 333 333 337 339 339 337 335 334 336 338 339 340 345 352 354 352 354 357 358 360 2
200 198 196 195 193 192 191 192 198 201 206 211 215 218 221 225 232 239 246 257 268 274 275 273 272 269 268 268 267 270 273 268 262 265 273 281 291 301 313 320 322 322 322 322 325 325 320 322 319 312 310 307 304 302 301 303 306 310 315 318 320 323 325 326 326 326 329 333 333 331 329 328 330 332 333 334 338 346 350 350 350 351 352 354 358
200 202 204 203 198 197 195 197 201 202 207 215 220 224 226 226 229 239 247 254 261 265 269 271 273 274 273 274 275 274 273 269 264 265 269 277 285 292 301 306 311 316 318 317 319 321 321 326 322 310 305 302 299 301 302 303 305 308 311 312 314 317 319 320 321 321 324 327 327 326 325 325 327 329 330 332 335 341 345 346 346 347 347 348 353
201 204 208 210 206 204 202 202 205 207 212 218 222 226 228 229 233 240 246 250 256 260 265 268 270 270 272 274 277 277 275 270 267 268 270 277 285 290 293 295 299 305 307 308 310 313 318 323 321 312 306 301 297 298 300 302 305 307 308 310 313 314 315 317 318 319 320 321 321 321 321 323 326 328 329 333 335 338 342 342 342 343 342 343 346
209 206 209 213 214 213 211 212 215 217 219 221 226 231 234 238 241 245 248 250 254 257 259 263 265 266 269 273 275 276 273 269 266 267 271 277 284 288 288 290 293 296 299 300 300 304 313 319 318 315 311 307 303 301 301 302 304 306 309 311 312 311 311 314 315 317 318 318 317 317 319 321 324 325 328 332 334 336 338 338 338 339 339 339 341
219 216 218 223 227 226 223 225 228 229 228 226 233 240 242 246 248 250 254 254 253 254 254 256 258 262 266 270 272 273 272 271 268 268 272 277 283 287 289 290 292 292 294 294 293 298 308 314 314 315 313 310 310 310 308 307 307 308 310 310 309 309 311 313 314 316 318 318 315 314 315 317 319 321 325 328 330 332 335 336 336 337 336 335 336
225 226 230 234 238 240 237 236 237 237 233 231 238 248 252 254 255 256 259 257 256 256 254 253 255 261 266 266 265 267 269 270 270 271 275 280 285 290 292 293 294 295 294 291 291 296 304 309 309 310 309 308 310 311 309 309 309 308 306 307 309 312 316 316 315 318 320 317 314 312 312 314 314 317 321 323 326 329 334 337 336 334 333 331 331
226 229 234 237 241 244 243 244 244 241 237 235 242 254 260 262 263 263 264 263 263 263 261 258 258 262 266 265 265 266 269 270 273 274 276 278 282 287 292 295 298 302 300 296 292 295 301 307 308 309 311 311 311 312 310 311 311 310 311 314 318 320 321 320 319 320 319 315 313 312 313 314 313 314 318 319 321 327 335 339 337 332 330 328 327
227 229 232 237 242 244 245 247 247 245 242 242 248 257 262 265 265 265 267 267 267 270 270 267 264 264 266 266 266 268 269 270 273 275 276 277 280 283 287 290 293 298 301 299 295 295 299 303 307 311 314 315 316 317 316 316 319 321 323 328 329 326 326 325 322 320 318 314 312 312 312 313 313 312 313 314 316 323 332 338 338 333 330 326 323
235 234 235 238 240 243 245 246 247 247 245 244 247 251 254 258 260 262 265 266 267 269 270 269 268 267 267 268 267 266 268 270 272 275 277 280 284 287 290 291 291 293 295 294 294 294 296 299 305 310 314 316 317 319 320 321 322 323 326 329 330 328 328 328 325 321 318 314 311 309 309 310 310 309 309 309 311 315 322 330 333 332 330 326 321
241 243 243 243 245 246 247 246 245 245 244 245 247 248 251 253 255 259 263 265 268 269 269 269 269 268 268 268 269 269 271 275 277 279 281 283 286 289 292 296 297 295 292 290 290 291 292 297 302 307 309 310 310 312 317 320 321 322 323 325 324 324 322 321 321 320 317 314 312 310 309 309 308 307 306 306 307 308 313 319 323 326 327 325 321
243 247 250 251 251 252 251 249 246 243 242 244 246 248 249 249 251 256 261 264 267 269 271 273 273 274 273 272 272 272 274 277 280 283 286 288 288 290 291 293 295 296 295 293 290 289 290 293 297 300 302 303 303 306 310 315 319 321 322 320 319 319 319 316 314 313 312 312 311 310 311 311 310 310 307 305 305 305 307 311 313 316 320 322 321
243 247 252 255 256 255 254 252 248 244 241 240 242 241 240 243 248 254 259 264 267 269 272 275 276 277 277 277 278 278 280 282 285 289 292 294 294 293 293 294 294 293 293 292 287 285 287 289 293 296 298 299 300 302 305 307 311 315 317 318 317 316 316 315 313 311 308 307 307 308 310 311 311 311 309 307 305 304 304 305 306 305 308 311 313
243 245 248 251 253 254 253 252 249 245 241 237 237 237 237 241 247 254 260 263 267 270 271 274 277 278 279 280 280 281 284 287 290 292 294 296 297 296 296 298 297 295 294 292 288 285 286 288 290 293 295 297 298 300 302 303 305 309 313 316 317 317 316 314 312 311 309 307 307 308 309 310 310 311 311 310 310 307 304 301 299 297 296 297 300
245 245 245 247 248 248 249 249 248 246 243 239 236 236 241 248 252 258 261 261 264 267 267 268 272 273 275 279 281 283 287 289 290 291 293 296 298 297 298 298 296 295 294 292 290 288 288 290 291 294 296 297 300 302 303 304 306 309 311 314 316 317 317 313 309 307 308 309 308 307 306 308 310 311 311 313 315 315 311 304 298 293 289 287 289
249 247 245 244 245 245 246 246 247 248 248 245 239 235 236 242 249 257 260 261 261 263 264 264 264 265 267 270 274 277 279 283 286 288 290 293 294 295 297 297 296 294 290 288 287 287 288 289 290 293 295 296 299 303 305 307 311 312 313 315 314 314 314 311 307 304 304 307 308 306 305 307 309 310 311 313 317 318 316 311 303 295 290 287 285
251 249 246 243 243 245 246 247 248 250 251 250 246 239 234 232 236 243 248 253 255 255 257 258 257 259 263 267 271 273 272 273 278 280 281 283 285 287 288 289 289 289 288 286 285 285 286 287 289 291 292 294 299 303 306 309 312 311 311 311 312 313 313 311 308 306 306 308 308 307 306 308 309 310 311 312 314 314 313 311 306 298 294 291 289
248 248 247 245 244 246 249 251 251 252 252 253 251 246 240 235 236 240 243 247 250 252 254 255 255 257 259 264 272 275 275 274 277 280 280 279 280 281 279 279 279 280 283 285 285 285 286 287 288 289 290 294 298 300 303 305 305 304 304 305 307 308 308 308 308 308 308 309 309 307 307 309 311 311 312 312 311 309 307 305 302 298 295 295 294
248 247 247 246 245 246 250 253 254 253 253 253 253 250 245 241 242 246 250 252 255 256 257 259 260 261 262 264 268 271 273 274 275 277 278 278 277 277 275 275 274 274 276 278 281 284 287 289 290 290 291 294 296 295 297 299 298 298 299 300 301 301 302 303 304 305 306 308 309 308 307 309 312 312 312 313 312 310 306 303 300 296 294 293 294
247 246 245 245 245 247 250 252 252 253 252 252 251 250 247 244 244 249 255 260 262 264 265 265 265 265 266 267 267 267 269 270 272 274 274 274 273 273 274 274 274 274 275 275 278 281 285 288 291 291 291 292 293 292 292 292 293 295 295 295 295 296 297 298 300 302 304 306 308 307 306 309 312 312 311 313 314 311 307 303 299 294 292 292 292
245 246 246 247 249 250 251 251 250 250 251 251 251 250 248 247 247 250 256 262 266 269 271 271 270 268 267 268 269 269 269 270 273 275 275 274 273 273 273 273 273 274 274 275 279 282 285 288 290 291 291 290 289 290 290 290 289 290 291 291 291 292 294 296 298 301 304 307 307 306 305 307 309 309 310 313 313 311 308 305 300 294 289 289 291
244 246 247 248 249 248 249 249 248 249 251 252 252 253 252 252 252 254 258 263 267 269 272 276 276 275 273 271 272 273 274 275 277 277 277 278 277 277 276 275 275 275 275 278 280 283 286 288 290 292 293 291 288 287 287 288 288 287 287 286 288 290 292 295 297 300 304 307 307 305 304 307 308 308 309 311 310 308 306 304 301 296 289 288 289
216 224 234 242 245 244 242 242 244 247 250 251 253 254 255 256 257 260 262 264 266 266 269 274 278 280 280 279 280 280 280 280 280 280 281 281 281 282 281 280 279 278 279 281 282 284 286 288 291 293 294 292 290 286 285 285 285 285 283 284 288 291 292 293 297 300 303 305 305 303 302 306 309 308 309 309 309 309 308 305 303 300 291 286 285
199 211 247 264 256 243 236 238 243 245 247 249 251 252 253 255 257 261 265 267 268 268 269 272 276 279 280 280 281 282 282 283 283 283 284 284 284 284 284 283 282 281 282 282 282 284 286 288 291 293 293 292 290 287 285 284 283 281 280 284 290 291 290 292 296 301 302 303 304 304 302 305 307 306 306 306 305 307 308 303 305 309 302 289 283
153 234 248 256 252 237 228 230 235 239 243 247 251 253 256 259 262 265 268 268 268 268 271 273 276 277 278 279 279 279 279 280 280 281 281 281 281 280 280 280 280 281 282 282 283 285 287 288 290 291 290 291 291 289 286 283 281 278 278 284 288 288 288 291 294 297 298 298 301 302 300 302 302 300 301 302 300 301 302 296 302 311 310 302 294